Regional Weather Roundup
Issued by NWS

Current Version | Previous Version | Text Only | Print | Product List | Glossary On
Versions: 1 2 3 4 5 6 7 8 9 10 11 12 13 14 15 16 17 18 19 20 21 22 23 24 25 26 27 28 29 30 31 32 33 34 35 36 37 38 39 40 41 42 43 44 45 46 47 48 49 50
000
ASUS46 KPQR 011910
RWROR

OREGON REGIONAL WEATHER ROUNDUP
NATIONAL WEATHER SERVICE PORTLAND OR
1200 PM PDT WED OCT 01 2014

NOTE: "FAIR" INDICATES FEW OR NO CLOUDS BELOW 12,000 FEET WITH
NO SIGNIFICANT WEATHER AND/OR OBSTRUCTIONS TO VISIBILITY.

ORZ001>013-012000-
NORTHWEST OREGON


CITY           SKY/WX    TMP DP  RH WIND       PRES   REMARKS
ASTORIA        CLOUDY    61  53  75 W7        30.23S
NEWPORT        SUNNY     63  50  63 N6        30.26S
PORTLAND       PTSUNNY   62  50  64 N5        30.24F
VANCOUVER WA   MOSUNNY   61  48  62 W6        30.23F
SCAPPOOSE      PTSUNNY   62  50  64 E5        30.23F
HILLSBORO      PTSUNNY   62  48  60 E3        30.23F
AURORA         MOSUNNY   62  49  62 E3        30.25F
MCMINNVILLE    SUNNY     61  50  67 CALM      30.25F
SALEM          PTSUNNY   64  47  53 NE8       30.23F
CORVALLIS      SUNNY     63  52  67 NE5       30.25F
EUGENE         MOSUNNY   61  52  72 VRB3      30.23F
$$

ORZ021-028-012000-
SOUTHWEST OREGON


CITY           SKY/WX    TMP DP  RH WIND       PRES   REMARKS
NORTH BEND     SUNNY     64  52  63 NE8       30.21S
BROOKINGS      HAZE      72  42  33 N8        30.06F VSB 1
ROSEBURG       MOSUNNY   60  48  64 N7        30.20F
SEXTON SUMMIT  SUNNY     54  43  66 VRB3      30.18S
MEDFORD        SUNNY     60  43  53 VRB3      30.17F
$$

ORZ009-041-012000-
COLUMBIA GORGE


CITY           SKY/WX    TMP DP  RH WIND       PRES   REMARKS
TROUTDALE      CLOUDY    62  50  64 VRB5      30.23F
THE DALLES     SUNNY     67  42  40 NW10G20   30.17F
$$

ORZ029>031-042>050-061>064-012000-
EASTERN OREGON


CITY           SKY/WX    TMP DP  RH WIND       PRES   REMARKS
REDMOND        SUNNY     57  33  40 CALM      30.20F
BEND           CLEAR     54  34  47 CALM      30.21F
KLAMATH FALLS  SUNNY     53  35  50 VRB3      30.21F
LAKEVIEW       SUNNY     54  30  40 N5        30.22F
HERMISTON      SUNNY     65  42  43 SW10      30.16F
PENDLETON      MOSUNNY   63  37  38 W8        30.16F
JOHN DAY       CLEAR     57  35  43 W8        30.20S
MEACHAM        CLOUDY    54  38  54 VRB5      30.18F
LA GRANDE      SUNNY     59  32  36 N10       30.16F
BAKER CITY     SUNNY     55  36  48 NW6       30.18F
BURNS          SUNNY     54  34  46 SW6       30.21F
ROME             N/A     53  32  44 CALM      30.21S
ONTARIO        SUNNY     62  37  39 CALM      30.18F
$$


USA.gov is the U.S. government's official web portal to all federal, state and local government web resources and services.